RED-EYE 3 (CABERNET) (45809 NORAD) Tracking and Keplerian Element Data

This shows tracking and keplerian element data for the satellite.

Feedback or suggestion? Click here.




ElementValue
Catalog45809
NameRED-EYE 3 (CABERNET)
Epoch Orbit107
Epoch Day182.75713802
Epoch Year2020
RAAN281.289
Inclination51.6451
Eccentricity0.0002124
Argument of Perigee92.6419
Mean Anonmoly267.4819
Mean Motion15.49634124
Decay Rate2.568E-05
L11 45809U 98067RN 20182.75713802 .00002568 00000-0 53599-4 0 9998
L22 45809 51.6451 281.2890 0002124 92.6419 267.4819 15.49634124 1074

Live tracking and technical data element details for RED-EYE 3 (CABERNET) (NORAD 45809). RED-EYE 3 (CABERNET) can be tracked NOW for your location showing map with azimuth and elevation plus other details from your city location.

Track the satellite on the map from your city or location and see movement details for azimuth, elevation, latitude, longitude, range, height, and movement on the map or in text.







IsCatalogInMostPopularTable: catalog: 45809, numindb: 5
Update: records affected: 1



GetName: 45809 RED-EYE 3 (CABERNET)

Hit Count: updated at: Fri, 10 Jul 2020 14:48:41 GMT